KE9DBJ Weather Reports


time (UTC)temp
C
wind
direction
speed
KPH
gust
KPH
rain 1hr
cm
rain 24hr
cm
rain mn
cm
humidity
%
barometer
mb
20260509023517 15 85 4.8 8.0 0.00 0.00 0.00 76 1009.8
20260509022522 15 13 1.6 4.8 0.00 0.00 0.00 77 1009.5
20260509021540 15 0.0 0.0 0.00 0.00 0.00 78 1009.4
20260509020520 15 0.0 0.0 0.00 0.00 0.00 68 1009.4
20260509015517 15 0.0 0.0 0.00 0.00 0.00 67 1009.3
20260509014515 15 0.0 0.0 0.00 0.00 0.00 71 1009.2
20260509013525 15 0.0 0.0 0.00 0.00 0.00 66 1009.2
20260509012530 15 135 0.0 1.6 0.00 0.00 0.00 65 1009.1
20260509011516 16 0.0 1.6 0.00 0.00 0.00 61 1009.1
20260509010520 16 180 1.6 3.2 0.00 0.00 0.00 65 1009.1
20260509005524 16 180 0.0 3.2 0.00 0.00 0.00 62 1009.1
20260509004529 16 180 1.6 3.2 0.00 0.00 0.00 57 1009.1
20260509003516 16 0.0 3.2 0.00 0.00 0.00 57 1009.1
20260509002520 17 270 0.0 3.2 0.00 0.00 0.00 56 1009.0
20260509001524 17 180 1.6 3.2 0.00 0.00 0.00 54 1008.9
20260509000528 17 182 3.2 3.2 0.00 0.00 0.00 54 1008.9
20260508235552 17 174 1.6 4.8 0.00 0.00 0.00 51 1009.1
20260508234519 17 187 3.2 3.2 0.00 0.00 0.00 53 1009.0
20260508233523 18 180 1.6 3.2 0.00 0.00 0.00 52 1009.0
20260508232528 18 176 3.2 4.8 0.00 0.00 0.00 51 1009.0
20260508231532 19 141 1.6 4.8 0.00 0.00 0.00 51 1009.0
20260508230518 19 148 1.6 4.8 0.00 0.00 0.00 50 1009.1
20260508225603 20 135 3.2 8.0 0.00 0.00 0.00 46 1008.9
20260508224527 20 160 3.2 6.4 0.00 0.00 0.00 50 1008.9
20260508223531 20 191 1.6 3.2 0.00 0.00 0.00 48 1008.9
20260508222517 21 132 1.6 6.4 0.00 0.00 0.00 47 1008.7
20260508221521 21 148 3.2 6.4 0.00 0.00 0.00 47 1008.7
20260508220526 21 6 3.2 4.8 0.00 0.00 0.00 42 1008.8
20260508215530 22 88 1.6 4.8 0.00 0.00 0.00 41 1008.7
20260508214538 21 155 4.8 9.7 0.00 0.00 0.00 41 1008.7
20260508213521 22 98 3.2 6.4 0.00 0.00 0.00 42 1008.8
20260508212525 22 75 4.8 11.3 0.00 0.00 0.00 37 1008.9
20260508211529 22 198 6.4 11.3 0.00 0.00 0.00 37 1008.9
20260508210516 22 255 4.8 6.4 0.00 0.00 0.00 40 1009.0
20260508205540 23 109 4.8 8.0 0.00 0.00 0.00 38 1009.1
20260508204525 23 104 6.4 11.3 0.00 0.00 0.00 35 1009.3
20260508203603 23 278 6.4 9.7 0.00 0.00 0.00 35 1009.5
20260508202515 22 32 4.8 8.0 0.00 0.00 0.00 39 1009.8
20260508201519 21 277 4.8 11.3 0.00 0.00 0.00 42 1010.0
20260508200518 22 299 4.8 8.0 0.00 0.00 0.00 40 1010.1
20260508195536 22 29 6.4 11.3 0.00 0.00 0.00 37 1010.2
20260508194532 21 355 4.8 8.0 0.00 0.00 0.00 41 1010.3
20260508193519 21 285 4.8 9.7 0.00 0.00 0.00 43 1010.4
20260508192523 21 45 4.8 11.3 0.00 0.00 0.00 39 1010.6
20260508191527 23 19 6.4 9.7 0.00 0.00 0.00 37 1010.5
20260508190532 23 30 6.4 9.7 0.00 0.00 0.00 35 1010.5
20260508185518 24 315 6.4 12.9 0.00 0.00 0.00 35 1010.6
20260508184522 24 351 8.0 14.5 0.00 0.00 0.00 36 1010.8
20260508183527 23 84 6.4 11.3 0.00 0.00 0.00 34 1011.1
20260508182531 24 301 6.4 11.3 0.00 0.00 0.00 38 1011.3
20260508181538 23 331 6.4 12.9 0.00 0.00 0.00 39 1011.5
20260508180542 21 299 4.8 11.3 0.00 0.00 0.00 40 1011.7
20260508175526 22 306 4.8 9.7 0.00 0.00 0.00 41 1011.7
20260508174530 23 215 6.4 11.3 0.00 0.00 0.00 36 1012.0
20260508173516 22 0 6.4 16.1 0.00 0.00 0.00 39 1012.2
20260508172541 23 308 9.7 14.5 0.00 0.00 0.00 39 1012.1
20260508171525 23 311 6.4 9.7 0.00 0.00 0.00 41 1012.3
20260508170529 22 351 4.8 8.0 0.00 0.00 0.00 41 1012.5
20260508165536 22 296 4.8 8.0 0.00 0.00 0.00 42 1012.9
20260508164540 22 44 8.0 11.3 0.00 0.00 0.00 41 1013.1
20260508163524 21 10 6.4 12.9 0.00 0.00 0.00 39 1013.3
20260508162528 21 324 6.4 8.0 0.00 0.00 0.00 44 1013.5
20260508161533 21 317 8.0 9.7 0.00 0.00 0.00 43 1013.6
20260508160539 21 356 4.8 8.0 0.00 0.00 0.00 44 1013.8
20260508155523 21 309 8.0 11.3 0.00 0.00 0.00 43 1013.8
20260508154548 21 283 6.4 8.0 0.00 0.00 0.00 46 1013.8
20260508153552 21 307 6.4 8.0 0.00 0.00 0.00 43 1014.0
20260508152518 21 0 6.4 17.7 0.00 0.00 0.00 43 1014.3
20260508151543 21 27 4.8 8.0 0.00 0.00 0.00 43 1014.3
20260508150607 20 193 4.8 9.7 0.00 0.00 0.00 46 1014.3
20260508145525 20 71 4.8 9.7 0.00 0.00 0.00 45 1014.5
20260508144517 20 300 4.8 12.9 0.00 0.00 0.00 48 1014.5
20260508143522 19 334 4.8 8.0 0.00 0.00 0.00 47 1014.5
20260508142540 18 336 3.2 8.0 0.00 0.00 0.00 47 1014.7
20260508141518 17 13 4.8 6.4 0.00 0.00 0.00 52 1014.8
20260508140517 17 290 4.8 8.0 0.00 0.00 0.00 55 1014.8
20260508135637 15 307 4.8 6.4 0.00 0.00 0.00 57 1014.8
20260508134526 14 293 3.2 6.4 0.00 0.00 0.00 63 1014.8
20260508133530 12 263 3.2 8.0 0.00 0.00 0.00 74 1015.0
20260508132516 11 96 3.2 4.8 0.00 0.00 0.00 74 1015.0
20260508131521 10 253 3.2 3.2 0.00 0.00 0.00 88 1015.0
20260508130545 10 109 1.6 4.8 0.00 0.00 0.00 93 1015.0
20260508125529 8 326 0.0 3.2 0.00 0.00 0.00 99 1015.0
20260508124515 8 86 0.0 3.2 0.00 0.00 0.00 99 1015.0
20260508123520 7 26 1.6 3.2 0.00 0.00 0.00 99 1015.0
20260508122524 6 45 1.6 3.2 0.00 0.00 0.00 99 1014.9
20260508121528 6 0.0 0.0 0.00 0.00 0.00 99 1014.8
20260508120533 5 0.0 0.0 0.00 0.00 0.00 99 1014.8
20260508115519 5 45 1.6 3.2 0.00 0.00 0.00 99 1014.9
20260508114543 5 225 0.0 3.2 0.00 0.00 0.00 99 1014.7
20260508113527 4 162 0.0 3.2 0.00 0.00 0.00 99 1014.7
20260508112531 3 0.0 0.0 0.00 0.00 0.00 99 1014.6
20260508111539 3 0.0 0.0 0.00 0.00 0.00 99 1014.5
20260508110522 3 0.0 0.0 0.00 0.00 0.00 99 1014.3
20260508105526 3 0.0 0.0 0.00 0.00 0.00 99 1014.3
20260508104531 3 0.0 0.0 0.00 0.00 0.00 99 1014.3
20260508103517 3 0.0 0.0 0.00 0.00 0.00 99 1014.3
20260508102521 3 158 0.0 1.6 0.00 0.00 0.00 99 1014.3
20260508101526 3 158 0.0 3.2 0.00 0.00 0.00 99 1014.3
20260508100530 3 0.0 0.0 0.00 0.00 0.00 99 1014.3
20260508095517 3 158 0.0 1.6 0.00 0.00 0.00 99 1014.5
20260508094521 3 0.0 0.0 0.00 0.00 0.00 99 1014.5
20260508093525 3 0.0 0.0 0.00 0.00 0.00 99 1014.3
20260508092529 3 0.0 0.0 0.00 0.00 0.00 99 1014.3
20260508091516 3 0.0 0.0 0.00 0.00 0.00 99 1014.3
20260508090520 3 0.0 0.0 0.00 0.00 0.00 99 1014.3
20260508085524 3 0.0 0.0 0.00 0.00 0.00 99 1014.3
20260508084523 3 0.0 0.0 0.00 0.00 0.00 99 1014.3
20260508083521 3 0.0 0.0 0.00 0.00 0.00 99 1014.3
20260508082519 2 0.0 0.0 0.00 0.00 0.00 99 1014.3
20260508081517 2 0.0 0.0 0.00 0.00 0.00 99 1014.3
20260508080516 3 0.0 0.0 0.00 0.00 0.00 99 1014.3
20260508075613 3 0.0 0.0 0.00 0.00 0.00 99 1014.3
20260508074559 3 0.0 0.0 0.00 0.00 0.00 99 1014.3
20260508073523 3 0.0 0.0 0.00 0.00 0.00 99 1014.3
20260508072527 3 0.0 0.0 0.00 0.00 0.00 99 1014.3
20260508071532 3 0.0 0.0 0.00 0.00 0.00 99 1014.3
20260508070517 3 0.0 0.0 0.00 0.00 0.00 99 1014.3
20260508065543 3 0.0 0.0 0.00 0.00 0.00 99 1014.7
20260508064526 3 0.0 0.0 0.00 0.00 0.00 99 1014.8
20260508063611 3 0.0 0.0 0.00 0.00 0.00 99 1014.9
20260508062517 3 0.0 0.0 0.00 0.00 0.00 99 1014.9
20260508061521 3 0.0 0.0 0.00 0.00 0.00 99 1015.1
20260508060525 3 0.0 0.0 0.00 0.00 0.00 99 1015.2
20260508055530 3 0.0 0.0 0.00 0.00 0.00 99 1015.2
20260508054516 3 0.0 0.0 0.00 0.00 0.00 99 1015.0
20260508053520 4 0.0 0.0 0.00 0.00 0.00 99 1015.0
20260508052524 4 0.0 0.0 0.00 0.00 0.00 99 1015.0
20260508051529 4 0.0 0.0 0.00 0.00 0.00 99 1015.0
20260508050515 4 176 1.6 3.2 0.00 0.00 0.00 99 1015.0
20260508045519 4 211 1.6 3.2 0.00 0.00 0.00 99 1015.0
20260508044524 4 158 0.0 3.2 0.00 0.00 0.00 99 1015.0
20260508043548 4 0.0 0.0 0.00 0.00 0.00 99 1015.2
20260508042532 4 0.0 0.0 0.00 0.00 0.00 99 1015.1
20260508041518 5 0.0 0.0 0.00 0.00 0.00 99 1015.0
20260508040523 5 0.0 0.0 0.00 0.00 0.00 99 1015.0
20260508035547 5 0.0 0.0 0.00 0.00 0.00 99 1015.0
20260508034532 5 0.0 0.0 0.00 0.00 0.00 99 1015.2
20260508033518 5 0.0 0.0 0.00 0.00 0.00 98 1015.0
20260508032522 5 203 1.6 3.2 0.00 0.00 0.00 98 1015.0
20260508031527 5 0.0 0.0 0.00 0.00 0.00 97 1015.0
20260508030525 5 0.0 0.0 0.00 0.00 0.00 97 1015.0
20260508025517 5 0.0 0.0 0.00 0.00 0.00 95 1015.0
20260508024521 5 0.0 0.0 0.00 0.00 0.00 94 1014.9